timestamp,wind_dir_avg,wind_spd_avg,wind_spd_max_dir,wind_spd_gust,battery_voltage,lat,long
2023-04-30 00:04:00+00:00,3.0,9.62,0.0,11.39,12.73,47.59359,-54.27349
2023-04-30 00:14:01+00:00,8.0,9.35,5.0,10.84,12.33,47.59359,-54.27349
2023-04-30 00:24:01+00:00,8.0,9.72,19.0,11.5,12.33,47.59359,-54.27349
2023-04-30 00:34:01+00:00,4.0,8.82,3.0,9.93,12.33,47.59359,-54.27349
2023-04-30 00:44:01+00:00,356.0,7.58,355.0,8.0,12.33,47.59359,-54.27349
2023-04-30 00:54:01+00:00,346.0,7.48,345.0,8.27,12.33,47.59359,-54.27349
2023-04-30 01:04:01+00:00,349.0,7.65,350.0,8.35,12.33,47.59359,-54.27349
2023-04-30 01:14:00+00:00,349.0,8.31,349.0,9.27,12.33,47.59359,-54.27349
2023-04-30 01:24:00+00:00,341.0,7.27,345.0,8.75,12.33,47.59359,-54.27349
2023-04-30 01:34:00+00:00,348.0,8.28,349.0,9.53,12.33,47.59359,-54.27349
2023-04-30 01:44:00+00:00,349.0,8.72,350.0,10.29,12.33,47.59359,-54.27349
2023-04-30 01:54:00+00:00,346.0,7.69,345.0,8.75,12.33,47.59359,-54.27349
2023-04-30 02:04:00+00:00,348.0,8.27,345.0,9.19,12.33,47.59359,-54.27349
2023-04-30 02:14:00+00:00,345.0,6.47,355.0,7.76,12.25,47.59359,-54.27349
2023-04-30 02:24:00+00:00,341.0,7.79,338.0,9.28,12.25,47.59359,-54.27349
2023-04-30 02:34:00+00:00,348.0,8.02,354.0,9.48,12.25,47.59359,-54.27349
2023-04-30 02:44:00+00:00,349.0,7.66,347.0,8.36,12.25,47.59359,-54.27349
2023-04-30 02:54:00+00:00,355.0,7.96,350.0,9.04,12.25,47.59359,-54.27349
2023-04-30 03:04:00+00:00,354.0,7.59,354.0,8.22,12.25,47.59359,-54.27349
2023-04-30 03:14:01+00:00,357.0,7.25,0.0,7.66,12.25,47.59359,-54.27349
2023-04-30 03:24:01+00:00,4.0,6.75,357.0,7.78,12.25,47.59359,-54.27349
2023-04-30 03:34:01+00:00,5.0,7.04,2.0,8.31,12.25,47.59359,-54.27349
2023-04-30 03:44:01+00:00,0.0,7.16,357.0,7.92,12.25,47.59359,-54.27349
2023-04-30 03:54:01+00:00,356.0,8.13,352.0,9.55,12.25,47.59359,-54.27349
2023-04-30 04:04:01+00:00,359.0,8.02,358.0,9.22,12.25,47.59359,-54.27349
2023-04-30 04:14:00+00:00,0.0,7.61,359.0,8.58,12.25,47.59359,-54.27349
2023-04-30 04:24:00+00:00,1.0,7.94,4.0,9.97,12.25,47.59359,-54.27349
2023-04-30 04:34:00+00:00,359.0,9.2,356.0,10.74,12.25,47.59359,-54.27349
2023-04-30 04:44:00+00:00,0.0,7.97,3.0,9.71,12.25,47.59359,-54.27349
2023-04-30 04:54:00+00:00,357.0,8.27,358.0,9.1,12.25,47.59359,-54.27349
2023-04-30 05:04:00+00:00,353.0,7.69,351.0,8.68,12.25,47.59359,-54.27349
2023-04-30 05:14:00+00:00,346.0,8.4,347.0,9.73,12.25,47.59359,-54.27349
2023-04-30 05:24:00+00:00,342.0,8.87,345.0,10.15,12.25,47.59359,-54.27349
2023-04-30 05:34:00+00:00,348.0,9.68,347.0,10.91,12.25,47.59359,-54.27349
2023-04-30 05:44:00+00:00,350.0,9.5,346.0,11.3,12.25,47.59359,-54.27349
2023-04-30 05:54:00+00:00,345.0,9.33,345.0,10.5,12.25,47.59359,-54.27349
2023-04-30 06:04:00+00:00,345.0,9.36,343.0,10.64,12.25,47.59359,-54.27349
2023-04-30 06:14:00+00:00,339.0,9.3,342.0,11.11,12.17,47.59359,-54.27349
2023-04-30 06:24:00+00:00,340.0,7.85,342.0,8.67,12.17,47.59359,-54.27349
2023-04-30 06:34:00+00:00,349.0,8.68,356.0,10.51,12.17,47.59359,-54.27349
2023-04-30 06:44:00+00:00,355.0,8.19,353.0,9.83,12.17,47.59359,-54.27349
2023-04-30 06:54:00+00:00,356.0,8.01,1.0,9.01,12.17,47.59359,-54.27349
2023-04-30 07:04:00+00:00,357.0,7.96,355.0,9.19,12.17,47.59359,-54.27349
2023-04-30 07:14:01+00:00,352.0,8.41,354.0,9.58,12.17,47.59359,-54.27349
2023-04-30 07:24:01+00:00,359.0,7.81,355.0,8.85,12.17,47.59359,-54.27349
2023-04-30 07:34:01+00:00,355.0,7.99,357.0,9.18,12.17,47.59359,-54.27349
2023-04-30 07:44:01+00:00,347.0,9.39,344.0,10.83,12.17,47.59359,-54.27349
2023-04-30 07:54:01+00:00,347.0,10.71,350.0,11.78,12.17,47.59359,-54.27349
2023-04-30 08:04:01+00:00,345.0,8.83,351.0,9.88,12.17,47.59359,-54.27349
2023-04-30 08:14:01+00:00,352.0,8.22,350.0,10.05,12.09,47.59359,-54.27349
2023-04-30 08:24:01+00:00,351.0,9.13,350.0,10.16,12.09,47.59359,-54.27349
2023-04-30 08:34:01+00:00,357.0,8.15,355.0,9.42,12.09,47.59359,-54.27349
2023-04-30 08:44:01+00:00,359.0,8.59,0.0,10.32,12.09,47.59359,-54.27349
2023-04-30 08:54:01+00:00,358.0,8.19,2.0,8.98,12.09,47.59359,-54.27349
2023-04-30 09:04:01+00:00,355.0,7.98,354.0,9.27,12.09,47.59359,-54.27349
2023-04-30 09:14:00+00:00,344.0,7.07,353.0,8.88,12.17,47.59359,-54.27349
2023-04-30 09:24:00+00:00,334.0,7.26,336.0,8.53,12.17,47.59359,-54.27349
2023-04-30 09:34:00+00:00,340.0,5.88,339.0,6.89,12.17,47.59359,-54.27349
2023-04-30 09:44:00+00:00,341.0,8.24,342.0,9.32,12.17,47.59359,-54.27349
2023-04-30 09:54:00+00:00,342.0,9.12,344.0,10.43,12.17,47.59359,-54.27349
2023-04-30 10:04:00+00:00,333.0,8.5,321.0,10.4,12.17,47.59359,-54.27349
2023-04-30 10:14:01+00:00,337.0,8.39,347.0,9.33,13.05,47.59359,-54.27349
2023-04-30 10:24:01+00:00,345.0,9.08,342.0,10.36,13.05,47.59359,-54.27349
2023-04-30 10:34:01+00:00,351.0,9.8,353.0,11.41,13.05,47.59359,-54.27349
2023-04-30 10:44:01+00:00,349.0,9.86,346.0,11.33,13.05,47.59359,-54.27349
2023-04-30 10:54:01+00:00,351.0,8.11,357.0,9.42,13.05,47.59359,-54.27349
2023-04-30 11:04:01+00:00,351.0,9.84,350.0,11.27,13.05,47.59359,-54.27349
2023-04-30 11:14:01+00:00,356.0,8.67,358.0,10.5,13.53,47.59359,-54.27349
2023-04-30 11:24:01+00:00,359.0,8.57,5.0,10.71,13.53,47.59359,-54.27349
2023-04-30 11:34:01+00:00,0.0,8.55,0.0,9.63,13.53,47.59359,-54.27349
2023-04-30 11:44:01+00:00,2.0,10.44,3.0,11.47,13.53,47.59359,-54.27349
2023-04-30 11:54:01+00:00,359.0,8.33,358.0,9.07,13.53,47.59359,-54.27349
2023-04-30 12:04:01+00:00,0.0,8.08,356.0,9.39,13.53,47.59359,-54.27349
2023-04-30 12:14:00+00:00,359.0,8.43,356.0,9.47,14.32,47.59359,-54.27349
2023-04-30 12:24:00+00:00,359.0,10.18,0.0,13.17,14.32,47.59359,-54.27349
2023-04-30 12:34:00+00:00,2.0,10.54,0.0,11.71,14.32,47.59359,-54.27349
2023-04-30 12:44:00+00:00,11.0,8.36,4.0,10.16,14.32,47.59359,-54.27349
2023-04-30 12:54:00+00:00,9.0,9.67,13.0,12.15,14.32,47.59359,-54.27349
2023-04-30 13:04:00+00:00,13.0,9.91,10.0,10.92,14.32,47.59359,-54.27349
2023-04-30 13:14:00+00:00,16.0,8.31,25.0,9.7,14.4,47.59359,-54.27349
2023-04-30 13:24:00+00:00,14.0,8.31,19.0,9.33,14.4,47.59359,-54.27349
2023-04-30 13:34:00+00:00,15.0,8.09,17.0,10.08,14.4,47.59359,-54.27349
2023-04-30 13:44:00+00:00,15.0,8.84,12.0,10.39,14.4,47.59359,-54.27349
2023-04-30 13:54:00+00:00,16.0,8.57,20.0,9.86,14.4,47.59359,-54.27349
2023-04-30 14:04:00+00:00,13.0,8.78,14.0,10.44,14.4,47.59359,-54.27349
2023-04-30 14:14:00+00:00,23.0,11.33,22.0,12.97,14.32,47.59359,-54.27349
2023-04-30 14:24:00+00:00,17.0,10.47,19.0,12.57,14.32,47.59359,-54.27349
2023-04-30 14:34:00+00:00,15.0,9.25,15.0,10.22,14.32,47.59359,-54.27349
2023-04-30 14:44:00+00:00,15.0,8.25,24.0,9.6,14.32,47.59359,-54.27349
2023-04-30 14:54:00+00:00,31.0,7.06,31.0,7.99,14.32,47.59359,-54.27349
2023-04-30 15:04:00+00:00,16.0,6.89,19.0,9.07,14.32,47.59359,-54.27349
2023-04-30 15:14:01+00:00,36.0,10.01,37.0,12.56,14.48,47.59359,-54.27349
2023-04-30 15:24:01+00:00,44.0,8.95,41.0,9.82,14.48,47.59359,-54.27349
2023-04-30 15:34:01+00:00,45.0,8.98,45.0,9.9,14.48,47.59359,-54.27349
2023-04-30 15:44:01+00:00,28.0,10.37,34.0,11.68,14.48,47.59359,-54.27349
2023-04-30 15:54:01+00:00,34.0,8.52,35.0,9.21,14.48,47.59359,-54.27349
2023-04-30 16:04:01+00:00,20.0,7.47,18.0,8.14,14.48,47.59359,-54.27349
2023-04-30 16:14:01+00:00,31.0,10.15,34.0,11.18,13.6,47.59359,-54.27349
2023-04-30 16:24:01+00:00,36.0,9.82,37.0,11.3,13.6,47.59359,-54.27349
2023-04-30 16:34:01+00:00,19.0,7.99,22.0,8.88,13.6,47.59359,-54.27349
2023-04-30 16:44:01+00:00,27.0,7.91,31.0,8.28,13.6,47.59359,-54.27349
2023-04-30 16:54:01+00:00,21.0,8.9,26.0,10.43,13.6,47.59359,-54.27349
2023-04-30 17:04:01+00:00,10.0,9.33,13.0,11.52,13.6,47.59359,-54.27349
2023-04-30 17:14:00+00:00,13.0,10.81,9.0,12.35,14.4,47.59359,-54.27349
2023-04-30 17:24:00+00:00,14.0,10.96,15.0,12.76,14.4,47.59359,-54.27349
2023-04-30 17:34:00+00:00,19.0,6.91,17.0,8.39,14.4,47.59359,-54.27349
2023-04-30 17:44:00+00:00,25.0,7.57,24.0,8.53,14.4,47.59359,-54.27349
2023-04-30 17:54:00+00:00,14.0,6.75,20.0,7.96,14.4,47.59359,-54.27349
2023-04-30 18:04:00+00:00,37.0,7.41,38.0,8.82,14.4,47.59359,-54.27349
2023-04-30 18:14:01+00:00,32.0,7.44,34.0,8.12,14.0,47.59359,-54.27349
2023-04-30 18:24:01+00:00,10.0,8.16,14.0,9.91,14.0,47.59359,-54.27349
2023-04-30 18:34:01+00:00,10.0,9.2,6.0,10.65,14.0,47.59359,-54.27349
2023-04-30 18:44:01+00:00,12.0,10.32,12.0,11.35,14.0,47.59359,-54.27349
2023-04-30 18:54:01+00:00,8.0,10.55,3.0,12.44,14.0,47.59359,-54.27349
2023-04-30 19:04:01+00:00,15.0,9.06,16.0,10.62,14.0,47.59359,-54.27349
2023-04-30 19:14:00+00:00,21.0,9.97,20.0,11.36,13.6,47.59359,-54.27349
2023-04-30 19:24:00+00:00,15.0,8.5,18.0,9.52,13.6,47.59359,-54.27349
2023-04-30 19:34:00+00:00,9.0,7.61,10.0,11.33,13.6,47.59359,-54.27349
2023-04-30 19:44:00+00:00,21.0,10.17,22.0,11.38,13.6,47.59359,-54.27349
2023-04-30 19:54:00+00:00,16.0,9.41,18.0,10.7,13.6,47.59359,-54.27349
2023-04-30 20:04:00+00:00,20.0,8.77,18.0,9.72,13.6,47.59359,-54.27349
2023-04-30 20:14:00+00:00,10.0,9.13,19.0,10.67,13.68,47.59359,-54.27349
2023-04-30 20:24:00+00:00,22.0,9.97,22.0,11.16,13.68,47.59359,-54.27349
2023-04-30 20:34:00+00:00,22.0,9.25,18.0,10.59,13.68,47.59359,-54.27349
2023-04-30 20:44:00+00:00,20.0,8.93,20.0,10.62,13.68,47.59359,-54.27349
2023-04-30 20:54:00+00:00,27.0,9.91,24.0,11.24,13.68,47.59359,-54.27349
2023-04-30 21:04:00+00:00,29.0,9.15,31.0,10.13,13.68,47.59359,-54.27349
2023-04-30 21:14:00+00:00,29.0,7.82,31.0,8.53,13.6,47.59359,-54.27349
2023-04-30 21:24:00+00:00,21.0,8.25,22.0,9.71,13.6,47.59359,-54.27349
2023-04-30 21:34:00+00:00,25.0,9.07,29.0,10.14,13.6,47.59359,-54.27349
2023-04-30 21:44:00+00:00,22.0,7.99,21.0,8.91,13.6,47.59359,-54.27349
2023-04-30 21:54:00+00:00,34.0,7.46,32.0,8.63,13.6,47.59359,-54.27349
2023-04-30 22:04:00+00:00,27.0,8.26,31.0,9.12,13.6,47.59359,-54.27349
2023-04-30 22:14:00+00:00,35.0,7.88,37.0,8.52,13.29,47.59359,-54.27349
2023-04-30 22:24:00+00:00,36.0,8.11,35.0,8.58,13.29,47.59359,-54.27349
2023-04-30 22:34:00+00:00,30.0,6.35,32.0,7.26,13.29,47.59359,-54.27349
2023-04-30 22:44:00+00:00,38.0,7.35,37.0,7.68,13.29,47.59359,-54.27349
2023-04-30 22:54:00+00:00,44.0,7.47,43.0,7.95,13.29,47.59359,-54.27349
2023-04-30 23:04:00+00:00,38.0,7.43,39.0,7.91,13.29,47.59359,-54.27349
2023-04-30 23:14:00+00:00,37.0,8.77,44.0,9.43,12.73,47.59359,-54.27349
2023-04-30 23:24:00+00:00,36.0,8.04,34.0,9.07,12.73,47.59359,-54.27349
2023-04-30 23:34:00+00:00,34.0,7.08,36.0,7.85,12.73,47.59359,-54.27349
2023-04-30 23:44:00+00:00,33.0,7.09,38.0,7.86,12.73,47.59359,-54.27349
2023-04-30 23:54:00+00:00,20.0,5.43,20.0,6.3,12.73,47.59359,-54.27349
